Powrót do katalogu

STARLINK-37502

AktywnyŁącznośćVLEO
NORAD 69263·PAYLOAD·🇺🇸 United States

Wystrzelony May 29, 2026 z Cape Canaveral Space Force Station

Loading…

Następne Przeloty (najbliższe 24 godziny)

TLE

ŚwieżeSource: CelesTrak SupGP

Epoka: Sep 14, 2026, 22:58 UTC

1 69263C 26117AB  26257.95743056 -.00055482  00000+0 -16389-2 0  2575
2 69263  53.1571 179.8160 0001287  81.6054 283.4244 15.34424661    18

Śledź STARLINK-37502 w czasie rzeczywistym z AllMySat

Download on the App Store